Regional Weather Roundup
Issued by NWS Newport/Morehead, NC

Current Version | Previous Version | Text Only | Print | Product List | Glossary On
Versions: 1 2 3 4 5 6 7 8 9 10 11 12 13 14 15 16 17 18 19 20 21 22 23 24 25 26 27 28 29 30 31 32 33 34 35 36 37 38 39 40 41 42 43 44 45 46 47 48 49 50
000 ASUS42 KMHX 250414 RWRMHX WEATHER ROUNDUP FOR EASTERN NORTH CAROLINA NATIONAL WEATHER SERVICE NEWPORT/MOREHEAD CITY NC 1200 AM EDT SUN JUN 25 2017 NOTE: "FAIR" INDICATES FEW OR NO CLOUDS BELOW 12,000 FEET WITH NO SIGNIFICANT WEATHER AND/OR OBSTRUCTIONS TO VISIBILITY NCZ015>017-031-032-045>047-102-103-250500- NORTH COAST CITY SKY/WX TMP DP RH WIND PRES REMARKS EDENTON CLOUDY 73 71 91 CALM 29.98F ELIZABETH CITY LGT RAIN 74 73 97 SE3 29.97F KITTY HAWK LGT RAIN 75 75 100 NW6 29.98S MANTEO DRIZZLE 76 74 96 NW5 29.99S $$ NCZ045>047-081-094-103-104-250500- CENTRAL COAST CITY SKY/WX TMP DP RH WIND PRES REMARKS FRISCO LGT RAIN 79 74 84 W12G18 30.02R $$ NCZ095-097-098-100-101-250500- SOUTHERN COAST CITY SKY/WX TMP DP RH WIND PRES REMARKS BEAUFORT HVY RAIN 77 77 100 W9 30.03S FOG CEDAR ISLAND NOT AVBL JACKSONVILLE CLOUDY 75 75 100 CALM 30.02S PINEY ISLAND CLOUDY N/A N/A N/A SW10 30.03R WILMINGTON MOCLDY 76 75 97 CALM 30.02F $$ NCZ011>013-027>030-043-044-078>080-089-090>093-098-250500- COASTAL PLAIN CITY SKY/WX TMP DP RH WIND PRES REMARKS AHOSKIE N/A 71 70 98 CALM 30.00R CLINTON PTCLDY 72 72 100 CALM 30.03S ELIZABETHTOWN NOT AVBL GOLDSBORO MOCLDY 73 73 100 NW3 30.00R GREENVILLE CLOUDY 73 73 100 CALM 30.03R HAVELOCK TSTM 75 72 90 SW12 30.03R KENANSVILLE CLOUDY 73 72 94 CALM 30.03R KINSTON CLOUDY 74 74 98 CALM 30.01R NEW BERN CLOUDY 74 74 100 S7 30.03S RICHLANDS CLOUDY 74 73 97 SE6 30.02F ROCKY MOUNT PTCLDY 71 71 100 W3 30.02R WASHINGTON CLOUDY N/A N/A N/A CALM 30.01R WHITEVILLE CLOUDY 77 75 93 CALM 30.03S $$ AMZ130-135-150-152-154-156-158-170-250-252-270-ANZ085-086-088-633-658-670-250500- MARINE OBSERVATIONS STATION/POSITION TIME TEMP WIND PRES WAVE SWELL AIR SEA DIR/SP/G HT/PER HT/PER (UTC) (F) (DEG/KT/KT) (MB) (FT/S) (FT/S) CHESAPEAKE LIGHT NOT AVBL 64 E VA BEACH 0350 73 73 200/ 12/ 14 1015.4 5/ 7 3/ 7 DUCK 0348 74 62 290/ 3/ 5 1015.1 2 E DUCK NOT AVBL OREGON INLET 0342 77 81 280/ 8/ 13 1015.1 13E OREGON INLT 0348 75 N/A 4/ 7 3/ 7 HATTERAS CG 0348 270/ 16/ 18 N/A DIAMOND BUOY 0350 81 80 230/ 21/ 25 1015.9 7/ 7 CAPE LOOKOUT 0400 78 290/ 11/ 12 1016.7 BEAUFORT LAB 0348 76 78 260/ 4/ 8 1016.4 30 SE NEW RVR IN 0308 80 80 230/ 16/ 19 1016.8 30 SE NEW RVR IN 0313 80 N/A 6/ 6 27 SE WRIGHTSVLE 0308 79 80 220/ 16/ 21 1016.4 5 SE WRIGHTSVLE 0308 78 80 240/ 10/ 19 1016.5 225 S CAPE HAT 0350 81 81 210/ 12/ 16 1020.3 4/ 5 2/ 8 41 SE CHARLESTON 0350 81 81 200/ 17/ 21 1017.5 4/ 5 2/ 8 $$

USA.gov is the U.S. government's official web portal to all federal, state and local government web resources and services.